Weather in Cochabamba

Bolivia     17˚23′47″S   66˚10′41″W
temp.,
°C
wind,
m/s
gust,
m/s
humid.,
%
clouds,
%
prec.,
mm/h
press.,
hPa
HPBL,
m
27 november, fri
fri2723:00+19˚ese234869 0.3 1015610
02:00+17˚sse225750 0.3 1014229
05:00+15˚se126343 0.0 1015142
08:00+17˚sse224959 0.0 1017883
11:00+22˚sse123315 0.0 10141881
14:00+25˚se22249 0.1 10112649
17:00+24˚ne6526100 0.1 10091698
20:00+19˚e124293 0.1 1014556
28 november, sat
sat2823:00+18˚se125098 0.0 1017597
02:00+17˚wsw015299 0.1 1014179
05:00+16˚se2258100 0.0 1015148
08:00+18˚se225086 0.0 1017938
11:00+23˚sse11356 0.0 10151670
14:00+26˚ese33252 0.1 10112809
17:00+25˚ene443156 0.1 10101622
20:00+19˚ese345029 0.4 1013402
29 november, sun
sun2923:00+18˚se22538 0.0 1015376
02:00+17˚s115941 0.0 101398
05:00+15˚s016530 0.0 101579
08:00+18˚sse115315 0.0 1016859
11:00+23˚ese12305 0.0 10152108
14:00+26˚ese12202 0.0 10103021
17:00+25˚e662717 0.0 10091759
20:00+20˚e34459 0.0 1012444
30 november, mon
mon3023:00+18˚se225249 0.0 1015358
02:00+17˚ese015865 0.0 1014129
05:00+16˚e016399 0.0 1014118
08:00+19˚wnw014596 0.0 1015882
11:00+24˚se222469 0.0 10132076
14:00+26˚e331885 0.0 10093005
17:00+26˚ne652443 0.0 10072105
20:00+20˚e344726 0.1 1011505
1 december, tue
tue123:00+18˚ese125237 0.0 1013287
02:00+17˚wnw015769 0.0 1012127
05:00+16˚nne115875 0.0 101368
08:00+18˚se114672 0.0 1015901
11:00+23˚se122968 0.0 10132072
14:00+26˚ne222151 0.1 10102980
17:00+24˚ene653140 0.1 10091754
20:00+21˚ese454167 0.1 10111167